This is the latest recevied weather packets stored in our database for station/object N1KM-15. If no packets are shown the sender has not sent any weather packets the latest 10 day(s).
| Time | Temp. | Humidity | Pressure | Rain* | Wind** | Luminosity | Snow |
|---|---|---|---|---|---|---|---|
| 1777565700 | 10° C | 93% | 1005.5 hPa | 5.59 mm | - | - | - |
| 1777564800 | 10° C | 93% | 1005.5 hPa | 4.83 mm | - | - | - |
| 1777563900 | 10° C | 93% | 1005.4 hPa | 4.57 mm | - | - | - |
| 1777563000 | 10° C | 92% | 1005.5 hPa | 4.06 mm | - | - | - |
| 1777562100 | 10.56° C | 91% | 1005.4 hPa | 3.56 mm | - | - | - |
| 1777561200 | 10.56° C | 92% | 1004.9 hPa | 3.56 mm | - | - | - |
| 1777560300 | 10.56° C | 93% | 1004.9 hPa | 3.56 mm | - | - | - |
| 1777559400 | 10° C | 93% | 1005.3 hPa | 3.56 mm | - | - | - |
| 1777558500 | 9.44° C | 95% | 1005.5 hPa | 3.56 mm | - | - | - |
| 1777557600 | 9.44° C | 95% | 1005.5 hPa | 3.05 mm | - | - | - |
| 1777556700 | 9.44° C | 96% | 1005.6 hPa | 2.79 mm | - | - | - |
| 1777555800 | 8.89° C | 96% | 1005.9 hPa | 2.79 mm | - | - | - |
| 1777554900 | 8.89° C | 96% | 1006 hPa | 2.54 mm | - | - | - |
| 1777554000 | 8.89° C | 96% | 1006.3 hPa | 2.54 mm | - | - | - |
| 1777553100 | 8.89° C | 96% | 1006.2 hPa | 2.54 mm | - | - | - |
| 1777552200 | 8.33° C | 96% | 1006.4 hPa | 2.54 mm | - | - | - |
| 1777551300 | 8.33° C | 97% | 1006.4 hPa | 2.79 mm | - | - | - |
| 1777550400 | 8.33° C | 97% | 1006.2 hPa | 2.03 mm | - | - | - |
| 1777549500 | 8.33° C | 97% | 1006.2 hPa | 1.78 mm | - | - | - |
| 1777548600 | 8.33° C | 97% | 1006.1 hPa | 1.78 mm | - | - | - |
| 1777547700 | 7.78° C | 97% | 1006.1 hPa | 1.78 mm | - | - | - |
| 1777546800 | 7.78° C | 97% | 1006.1 hPa | 1.78 mm | - | - | - |
| 1777545900 | 7.78° C | 96% | 1005.9 hPa | 1.78 mm | - | - | - |
| 1777545000 | 7.78° C | 96% | 1005.6 hPa | 1.78 mm | - | - | - |
| 1777544100 | 7.78° C | 96% | 1005.5 hPa | 2.54 mm | - | - | - |
* Rain since midnight (hover to see other rain measurements)
** Current wind speed in m/s (hover to see current wind gust speed)